Terminal Aerodrome Forecast
Issued by NWS Pocatello, ID

Home | Current Version | Previous Version | Text Only | Print | Product List | Glossary On
Versions: 1 2 3 4 5 6 7 8 9 10 11 12 13 14 15 16 17 18 19 20
000
FTUS45 KPIH 222300 AAA
TAFPIH
TAF AMD
KPIH 222337Z 2300/2324 VRB05KT P6SM -SHRA VCTS SCT025 BKN060CB
      BKN200
      TEMPO 2300/2301 VRB15G30KT P6SM -TSRA SCT025 BKN040CB
     FM230100 VRB05KT P6SM VCTS SCT025 BKN060CB BKN200
     FM230300 VRB05KT P6SM -SHRA BKN035
     FM230900 18006KT 4SM BR BKN035 BKN060
     FM231200 18006KT 2SM BR BKN035 BKN060
     FM231500 22010KT P6SM VCSH SCT025 SCT040=

USA.gov is the U.S. government's official web portal to all federal, state and local government web resources and services.